Location: Penton Mewsey
(51.2167°N, 1.5167°W)
Time: 00:43:15
(UTC+00:00)

STARLINK-1243 - Pass Details

Date: 30 March 2020
Orbit: 549 x 550 km, 53.0° (Epoch: 03 June)

Event Time Altitude Azimuth Distance (km) Brightness Sun altitude
Rises 20:07:40 0° 244° (WSW) 2,720 7.7 -14.4°
Reaches altitude 10° 20:09:54 10° 243° (WSW) 1,828 6.8 -14.7°
Maximum altitude 20:14:03 76° 159° (SSE) 574 3.5 -15.3°
Enters shadow 20:16:46 21° 75° (ENE) 1,276 5.1 -15.7°
